[[{"header":{"parameterUnit":"m.s-1","parameterCategory":1,"la1":30.2992,"la2":30.254,"lo1":-89.0895,"lo2":-89.0443,"dy":0.0025,"dx":0.0025,"nx":19,"ny":19,"refTime":"2026-04-01T21:00:00:Z","depth":0,"parameterNumber":2,"parameterNumberName":"U-component_of_WINDS"},"data":[0,0,0,-5.7497,-5.75,-5.7638,-5.7639,-5.7829,-5.783,0,0,0,0,0,0,0,0,0,0,0,-5.7467,-5.7468,-5.7497,-5.7501,-5.7638,-5.7639,-5.7828,-5.783,0,0,0,0,0,0,0,0,0,0,0,-5.7466,-5.7468,-5.747,-5.7501,-5.7638,-5.7639,-5.7828,-5.7718,0,0,0,0,0,0,0,0,0,0,-5.7582,-5.7565,-5.7467,-5.747,-5.7502,-5.7638,-5.7639,-5.7713,-5.7725,-5.7773,0,-5.782,0,-5.7829,-5.7844,-5.7845,0,0,0,-5.7492,-5.7555,-5.7583,-5.747,-5.7503,-5.7638,-5.7574,-5.772,-5.7734,-5.7789,-5.7822,-5.7829,-5.7832,-5.7846,-5.7847,-5.8154,-5.8155,0,0,-5.7484,-5.7496,-5.7573,-5.7592,-5.7574,-5.7569,-5.7578,-5.7728,-5.7764,-5.7823,-5.7833,-5.7835,-5.7847,-5.7849,-5.8152,-5.8154,0,0,0,-5.7468,-5.7492,-5.7515,-5.7585,-5.7609,-5.7573,-5.7584,-5.7757,-5.7764,-5.7835,-5.7837,-5.7848,-5.7851,-5.815,-5.8153,-5.8254,0,0,0,-5.7463,-5.7482,-5.7513,-5.7521,-5.7606,-5.7685,-5.761,-5.7754,-5.777,-5.7836,-5.7848,-5.7853,-5.8148,-5.8151,-5.8247,-5.8298,0,0,0,-5.7454,-5.7481,-5.7505,-5.7522,-5.7582,-5.7682,-5.7698,-5.7757,-5.7772,-5.7845,-5.7853,-5.8146,-5.8151,-5.824,-5.8288,-5.8381,0,0,0,-5.7447,-5.7592,-5.7507,-5.767,-5.7581,-5.7746,-5.7696,-5.7818,-5.7893,-5.7849,-5.8148,-5.8152,-5.8238,-5.8281,-5.8374,-5.8459,-5.8497,0,0,-5.7637,-5.7616,-5.7711,-5.7638,-5.7821,-5.7723,-5.7921,-5.7977,-5.7973,-5.8093,-5.81,-5.8249,-5.8287,-5.8379,-5.8709,-5.8738,0,0,0,-5.7774,-5.7843,-5.7889,-5.7962,-5.801,-5.8055,-5.8081,-5.8102,-5.8204,-5.8038,-5.8309,-5.8331,-5.8385,-5.8425,-5.845,-5.8494,-5.8172,-5.8172,-5.8172,-5.8057,-5.8046,-5.8201,-5.8206,-5.8278,-5.8304,-5.836,-5.8393,-5.8359,-5.8423,-5.8457,-5.8659,-5.8706,-5.8725,-5.8771,-5.8504,-5.8505,-5.8505,-5.8505,-5.8331,-5.8425,-5.8379,-5.8513,-5.8499,-5.8611,-5.8642,-5.8615,-5.8716,-5.8632,-5.8678,-5.8585,-5.8759,-5.8798,-5.8513,-5.8512,-5.8511,-5.851,-5.8509,-5.8512,-5.8555,-5.858,-5.8685,-5.8767,-5.8767,-5.8867,-5.8851,-5.8837,-5.8883,-5.8916,-5.8914,-5.8908,-5.8901,-5.8902,-5.8902,-5.8903,-5.8904,-5.8904,-5.8688,-5.8714,-5.88,-5.8866,-5.891,-5.8968,-5.8997,-5.904,-5.9083,-5.9064,-5.9064,-5.9022,-5.878,-5.8717,-5.8915,-5.8913,-5.8911,-5.891,-5.891,-5.8964,-5.89,-5.9034,-5.9079,-5.9154,-5.9235,-5.9216,-5.9306,-5.9339,-5.9388,-5.9338,-5.9163,-5.9139,-5.9118,-5.9066,-5.9342,-5.9342,-5.9342,-5.9342,-5.9114,-5.9102,-5.9235,-5.9308,-5.9379,-5.9375,-5.9524,-5.9549,-5.9564,-5.9583,-5.9542,-5.9473,-5.9453,-5.9441,-5.9413,-5.9364,-5.971,-5.971,-5.9711,-5.9282,-5.9276,-5.9406,-5.9422,-5.948,-5.953,-5.9669,-5.9754,-5.9757,-5.9725,-5.9598,-5.9582,-5.947,-5.9435,-5.9396,-5.9354,-5.9263,0,0]},{"header":{"parameterUnit":"m.s-1","parameterCategory":1,"la1":30.2992,"la2":30.254,"lo1":-89.0895,"lo2":-89.0443,"dy":0.0025,"dx":0.0025,"nx":19,"ny":19,"refTime":"2026-04-01T21:00:00:Z","depth":0,"parameterNumber":3,"parameterNumberName":"V-component_of_WINDS"},"data":[0,0,0,2.3591,2.3592,2.3633,2.3633,2.3692,2.3692,0,0,0,0,0,0,0,0,0,0,0,2.3582,2.3583,2.3591,2.3592,2.3633,2.3634,2.3692,2.3692,0,0,0,0,0,0,0,0,0,0,0,2.3582,2.3583,2.3583,2.3592,2.3633,2.3634,2.3691,2.3658,0,0,0,0,0,0,0,0,0,0,2.3618,2.3612,2.3583,2.3583,2.3593,2.3633,2.3634,2.3657,2.366,2.3676,0,2.369,0,2.3692,2.3697,2.3697,0,0,0,2.359,2.3609,2.3618,2.3583,2.3593,2.3633,2.3614,2.3659,2.3663,2.3681,2.3691,2.3693,2.3693,2.3697,2.3697,2.3796,2.3796,0,0,2.3587,2.3591,2.3615,2.3621,2.3615,2.3613,2.3615,2.3661,2.3672,2.3691,2.3694,2.3694,2.3697,2.3698,2.3795,2.3796,0,0,0,2.3583,2.359,2.3597,2.3618,2.3625,2.3614,2.3617,2.367,2.3672,2.3694,2.3695,2.3698,2.3699,2.3794,2.3795,2.3829,0,0,0,2.3581,2.3587,2.3596,2.3599,2.3625,2.3648,2.3625,2.3669,2.3674,2.3694,2.3698,2.3699,2.3794,2.3795,2.3827,2.3844,0,0,0,2.3578,2.3587,2.3594,2.3599,2.3617,2.3647,2.3652,2.367,2.3674,2.3697,2.3699,2.3793,2.3795,2.3825,2.3841,2.3873,0,0,0,2.3576,2.3621,2.3594,2.3645,2.3616,2.3668,2.3652,2.3689,2.3713,2.3698,2.3794,2.3795,2.3824,2.3839,2.3871,2.3901,2.3914,0,0,2.3635,2.3628,2.3658,2.3635,2.3693,2.3662,2.3724,2.3741,2.3739,2.3777,2.3779,2.3828,2.3841,2.3873,2.3983,2.3994,0,0,0,2.3678,2.37,2.3714,2.3737,2.3753,2.3768,2.3775,2.3782,2.3814,2.3759,2.3847,2.3855,2.3874,2.3888,2.3897,2.3913,2.3802,2.3802,2.3801,2.3766,2.3763,2.3813,2.3816,2.3838,2.3847,2.3866,2.3877,2.3864,2.3886,2.3897,2.3965,2.3982,2.3988,2.4006,2.3912,2.3912,2.3912,2.3912,2.3852,2.3883,2.387,2.3914,2.3911,2.3947,2.3958,2.395,2.3984,2.3955,2.3971,2.3941,2.4,2.4015,2.3915,2.3915,2.3914,2.3914,2.3914,2.391,2.3925,2.3934,2.397,2.3998,2.3999,2.4033,2.4029,2.4024,2.404,2.4053,2.4053,2.4053,2.4047,2.4047,2.4047,2.4047,2.4048,2.4048,2.3967,2.3976,2.4006,2.4029,2.4045,2.4066,2.4077,2.4093,2.4109,2.4103,2.4103,2.4091,2.4006,2.3985,2.4051,2.4051,2.405,2.405,2.405,2.4057,2.4037,2.4083,2.41,2.4128,2.4158,2.4152,2.4185,2.4197,2.4215,2.42,2.4138,2.413,2.4123,2.4106,2.42,2.42,2.42,2.42,2.4106,2.4103,2.4151,2.4179,2.4205,2.4206,2.426,2.4271,2.4278,2.4286,2.4271,2.4248,2.4241,2.4238,2.4228,2.4213,2.4331,2.4331,2.4331,2.4163,2.4162,2.4209,2.4217,2.424,2.426,2.4311,2.4344,2.4347,2.4337,2.4292,2.4287,2.4249,2.4237,2.4225,2.421,2.4181,0,0]}]]